Temp
3 3 2 2 2 2 2 2 2 3 3 3 3 4 5 5 5 5 3 2 2 -5 -0 1 1 1 -0 -1 -2 -3 -2 -2 -3 -1 2 2 2 -1 1 2 -1 -1 -1 -2 -0 -2 1 2 3 3 1 -0 -2 -3
2 2 2 2 2 2 2 2 3 4 4 3 3 3 4 4 4 4 4 2 2 1 -0 1 1 2 2 2 -2 -4 -3 -3 -2 -1 0 -1 0 -6 -6 -2 -0 -2 -0 -1 1 2 2 2 1 -1 -0 -2 -2 -3
2 3 3 3 3 3 3 3 3 3 3 2 2 2 2 3 3 3 2 2 1 -5 -2 -1 -0 2 2 2 2 -3 -3 -2 0 -2 1 1 0 -2 -4 -4 -2 -1 -3 -1 -0 2 -1 -1 1 -1 -1 -1 -1 -2
3 3 3 4 4 4 4 3 3 3 3 2 2 2 3 2 1 2 2 1 0 -3 -5 -1 1 1 1 1 1 1 -1 -1 -1 -1 1 -0 -1 -3 -4 -3 -4 -1 -2 -1 -2 -2 -3 0 -1 -0 -1 -2 -2 -2
3 3 3 4 4 3 3 3 2 1 1 2 2 2 3 2 1 1 1 -0 -0 -1 -2 -1 -1 -1 -0 -0 -0 -2 -1 -2 -1 -1 -1 -3 -7 -6 -7 -4 -3 -5 -2 -2 -1 -1 -2 -2 -0 0 -1 -2 -1 -3
4 4 3 3 3 2 1 2 1 1 1 1 2 3 2 1 1 0 -1 -0 -1 -1 -6 -4 -3 -3 -3 -2 -3 -2 -1 -1 -2 -1 -5 -11 -10 -2 -2 -2 -4 -6 -6 -2 -2 0 -1 -1 1 0 -1 -1 -3 -5
3 3 3 3 2 1 1 1 1 1 1 1 1 2 1 1 0 -0 -2 -2 -1 -1 -5 -5 -4 -5 -3 -3 -3 -3 -1 -2 -3 -6 -6 -8 -7 -1 -2 -5 -3 -7 -7 -5 -4 -3 -1 -2 -0 -2 -2 -3 -3 -8
3 3 3 1 1 1 1 1 1 1 1 2 2 1 -0 -1 -1 -1 -1 -1 -1 -1 -3 -8 -6 -5 -4 -3 -3 -2 -3 -3 -3 -7 -8 -6 -5 -5 -4 -4 -9 -11 -10 -8 -6 -6 -6 -4 -5 -5 -6 -7 -8 -9
3 3 3 2 1 1 1 1 1 1 1 2 2 -1 -1 -1 -3 -2 -2 -2 -2 -2 -7 -4 -3 -6 -5 -7 -5 -3 -3 -5 -7 -8 -5 -5 -7 -3 -2 -7 -7 -8 -7 -8 -6 -6 -6 -5 -5 -6 -7 -8 -8 -10
3 2 2 2 1 1 1 1 1 1 2 2 1 0 -8 -3 -2 -2 -2 -3 -5 -4 -8 -8 -6 -4 -7 -8 -7 -8 -6 -6 -7 -7 -6 -6 -8 -4 -6 -6 -10 -13 -13 -14 -7 -7 -8 -7 -5 -6 -8 -8 -8 -9
3 2 2 1 1 1 1 1 1 1 1 1 -2 -7 -2 -2 -2 -4 -4 -5 -9 -9 -6 -5 -4 -5 -7 -5 -4 -6 -8 -8 -5 -6 -5 -10 -9 -9 -11 -14 -16 -17 -16 -16 -10 -8 -7 -7 -6 -7 -9 -10 -10 -11
3 2 2 2 1 1 1 1 1 1 0 -0 -1 -2 -2 -5 -7 -4 -11 -10 -8 -5 -6 -6 -5 -6 -7 -5 -4 -6 -6 -8 -6 -9 -8 -9 -9 -10 -10 -11 -11 -15 -13 -10 -10 -10 -10 -11 -11 -11 -11 -12 -13 -13
3 2 2 2 1 1 1 1 1 1 0 -2 -3 -6 -8 -11 -8 -8 -5 -7 -8 -7 -7 -7 -4 -5 -4 -4 -3 -6 -4 -6 -9 -5 -7 -11 -11 -10 -10 -14 -12 -11 -9 -10 -11 -11 -12 -12 -12 -12 -13 -13 -13 -14
2 2 1 2 1 1 1 1 1 0 -1 -8 -6 -6 -8 -10 -11 -9 -7 -6 -5 -7 -7 -6 -4 -3 -3 -4 -6 -4 -5 -6 -5 -6 -9 -14 -12 -11 -11 -10 -10 -11 -11 -11 -12 -12 -12 -12 -13 -13 -14 -14 -14 -15
0 0 1 2 1 1 1 1 1 1 -1 -5 -9 -6 -9 -10 -13 -12 -11 -8 -5 -4 -4 -3 -3 -2 -3 -3 -4 -3 -5 -4 -6 -9 -11 -11 -11 -12 -11 -11 -11 -11 -12 -12 -12 -12 -12 -13 -13 -14 -15 -15 -16 -16
0 0 1 1 1 1 1 1 0 -0 -1 -5 -6 -7 -11 -8 -7 -6 -6 -4 -4 -4 -4 -3 -2 -3 -7 -5 -3 -5 -4 -7 -9 -10 -11 -12 -12 -12 -12 -12 -12 -13 -13 -13 -13 -14 -13 -14 -14 -15 -15 -16 -16 -16
0 1 0 1 0 -0 1 0 -0 -1 -1 -4 -6 -12 -7 -7 -4 -3 -3 -4 -3 -3 -2 -3 -2 -3 -3 -3 -5 -10 -10 -11 -11 -11 -12 -13 -14 -14 -14 -14 -14 -14 -14 -14 -15 -15 -14 -15 -15 -15 -16 -16 -17 -16
1 -0 -0 -1 -0 -1 -0 -0 -1 -3 -2 -9 -5 -8 -6 -5 -5 -6 -8 -7 -5 -4 -3 -2 -4 -5 -10 -10 -10 -12 -12 -12 -12 -13 -13 -15 -16 -16 -16 -15 -15 -16 -16 -16 -16 -16 -16 -15 -16 -16 -17 -17 -17 -17
-1 -1 -1 -1 -1 -1 -2 -2 -1 -2 -4 -8 -8 -7 -9 -8 -6 -9 -11 -11 -10 -10 -10 -13 -11 -12 -12 -13 -13 -13 -14 -14 -15 -15 -14 -16 -16 -17 -17 -17 -17 -17 -17 -18 -18 -17 -16 -17 -17 -17 -17 -17 -17 -18
-2 -2 -2 -1 -1 -2 -2 -2 -2 -2 -3 -7 -10 -8 -10 -9 -8 -14 -15 -14 -15 -19 -14 -14 -14 -14 -14 -14 -15 -15 -15 -17 -17 -17 -16 -16 -17 -18 -18 -18 -18 -19 -18 -19 -19 -17 -18 -17 -17 -18 -18 -17 -18 -18
-3 -2 -2 -2 -1 -1 -3 -6 -8 -6 -10 -7 -10 -13 -13 -17 -16 -17 -17 -17 -19 -22 -17 -16 -16 -16 -15 -16 -16 -17 -18 -18 -22 -23 -20 -21 -18 -19 -19 -19 -19 -19 -19 -21 -21 -21 -20 -19 -19 -19 -19 -18 -18 -19
-3 -4 -4 -3 -4 -5 -7 -8 -10 -12 -11 -12 -15 -20 -19 -17 -19 -20 -21 -21 -23 -20 -21 -21 -20 -18 -17 -18 -17 -17 -18 -18 -18 -18 -18 -18 -20 -20 -20 -20 -20 -21 -21 -21 -21 -21 -21 -21 -20 -19 -19 -19 -19 -19
-4 -4 -5 -6 -10 -10 -9 -11 -13 -17 -13 -15 -21 -18 -19 -20 -21 -22 -23 -25 -21 -18 -16 -15 -16 -16 -16 -17 -17 -18 -18 -18 -18 -18 -19 -19 -19 -20 -20 -20 -21 -21 -22 -22 -21 -21 -21 -20 -20 -20 -20 -20 -20 -20
-6 -9 -16 -16 -19 -13 -20 -19 -22 -21 -21 -21 -22 -16 -19 -22 -24 -24 -21 -23 -21 -17 -16 -16 -16 -19 -18 -19 -20 -18 -17 -18 -18 -19 -18 -19 -20 -19 -19 -20 -21 -21 -21 -22 -22 -21 -21 -21 -20 -20 -20 -21 -21 -21
-9 -13 -17 -16 -25 -17 -20 -19 -21 -18 -19 -24 -20 -20 -21 -27 -22 -25 -21 -20 -23 -22 -20 -17 -18 -19 -21 -24 -20 -18 -17 -18 -18 -20 -17 -18 -19 -19 -20 -20 -20 -20 -20 -21 -21 -21 -21 -21 -21 -21 -21 -22 -22 -20
-11 -19 -14 -20 -21 -16 -20 -15 -20 -20 -22 -22 -22 -25 -29 -25 -21 -19 -19 -21 -22 -22 -20 -20 -20 -22 -21 -20 -21 -19 -17 -17 -18 -20 -18 -17 -18 -20 -22 -23 -23 -21 -19 -20 -20 -21 -21 -21 -21 -21 -21 -20 -19 -20
-13 -16 -21 -19 -21 -21 -19 -20 -20 -19 -19 -19 -21 -22 -24 -19 -20 -17 -20 -18 -20 -13 -12 -13 -14 -17 -18 -17 -17 -17 -17 -17 -17 -18 -18 -18 -18 -18 -19 -21 -22 -19 -19 -20 -20 -20 -21 -20 -20 -20 -21 -20 -20 -20
-20 -20 -15 -21 -21 -22 -19 -21 -21 -17 -17 -19 -20 -18 -18 -16 -13 -16 -18 -13 -12 -12 -13 -14 -15 -16 -16 -16 -16 -17 -17 -18 -18 -18 -19 -19 -18 -17 -17 -18 -18 -18 -20 -20 -19 -19 -19 -20 -20 -20 -20 -20 -20 -20
-21 -21 -20 -19 -22 -22 -19 -16 -16 -16 -16 -17 -16 -15 -16 -17 -17 -15 -13 -13 -13 -14 -16 -16 -15 -16 -15 -16 -16 -16 -17 -18 -21 -24 -22 -20 -19 -18 -16 -17 -17 -18 -18 -19 -18 -19 -18 -18 -17 -17 -18 -19 -20 -21
-21 -24 -22 -24 -19 -14 -15 -19 -19 -22 -22 -21 -23 -21 -20 -19 -13 -13 -14 -15 -16 -16 -14 -15 -15 -16 -15 -17 -16 -15 -15 -16 -17 -20 -20 -20 -18 -15 -16 -16 -17 -17 -17 -18 -18 -18 -17 -18 -18 -18 -19 -20 -21 -21
-22 -23 -22 -22 -19 -18 -21 -24 -25 -26 -26 -25 -26 -23 -20 -22 -20 -17 -17 -17 -17 -16 -17 -16 -16 -15 -16 -17 -19 -20 -19 -12 -13 -15 -15 -16 -16 -16 -16 -16 -16 -17 -17 -18 -18 -19 -19 -19 -19 -19 -20 -21 -21 -22
-21 -21 -20 -19 -18 -22 -24 -25 -27 -28 -28 -29 -26 -30 -28 -24 -21 -19 -14 -15 -17 -18 -15 -15 -15 -12 -11 -12 -13 -14 -16 -15 -14 -14 -15 -16 -17 -17 -17 -17 -16 -17 -17 -17 -17 -18 -18 -19 -19 -20 -21 -21 -21 -22
-24 -24 -23 -22 -21 -20 -23 -23 -25 -26 -29 -30 -28 -29 -27 -22 -20 -18 -15 -15 -15 -15 -14 -13 -12 -13 -14 -14 -14 -14 -15 -15 -15 -15 -16 -15 -14 -14 -15 -16 -16 -16 -17 -17 -17 -18 -18 -19 -19 -20 -20 -21 -21 -21
Height
856 857 857 856 855 853 852 851 848 845 842 839 837 835 831 830 827 826 827 825 824 831 829 828 827 831 833 836 843 839 840 838 842 843 833 833 833 847 838 826 836 838 844 845 832 849 823 794 794 797 799 798 801 805
861 861 860 859 858 857 856 853 850 847 844 841 839 837 835 833 831 828 827 827 826 825 827 825 825 825 825 825 832 837 839 838 835 839 839 844 841 865 867 850 827 840 823 828 817 803 792 792 791 793 793 796 798 801
864 864 863 862 861 859 857 855 852 850 847 844 842 840 838 836 833 830 829 828 827 828 827 825 823 823 823 824 825 834 835 831 830 831 832 834 839 843 856 847 829 818 818 819 812 792 797 793 791 792 792 792 794 796
868 867 866 864 863 860 859 857 854 852 849 847 845 842 839 836 835 833 832 831 830 833 842 825 821 822 821 822 823 824 826 829 831 832 832 834 838 837 842 828 830 816 815 807 806 800 797 790 790 789 792 793 794 795
871 870 868 867 864 863 861 859 856 854 851 848 846 842 839 836 834 834 833 834 833 836 838 826 821 820 820 822 822 824 827 829 832 835 835 842 844 842 838 830 818 812 804 809 800 790 792 789 782 785 789 790 790 793
873 872 871 868 867 865 863 859 857 855 852 849 845 841 838 836 835 835 835 836 834 834 837 838 824 822 824 825 826 827 828 829 831 832 839 845 836 829 828 819 804 802 797 792 791 784 784 781 780 782 786 786 790 792
874 873 872 871 869 866 862 860 858 855 851 847 844 840 837 835 835 836 839 839 837 835 838 839 832 826 826 826 827 829 829 829 831 837 838 838 834 825 820 827 792 796 795 790 787 786 783 780 777 781 782 785 790 793
876 875 874 872 870 866 863 861 858 854 850 845 840 837 835 835 836 837 838 837 837 836 837 855 843 834 830 828 830 828 829 830 829 835 834 833 830 829 821 795 801 799 794 790 785 783 782 780 780 781 783 787 789 792
878 876 873 871 868 867 864 861 856 852 847 841 837 834 834 836 837 839 836 834 835 839 847 845 843 850 831 834 832 829 828 835 833 836 829 826 831 814 792 800 794 791 789 787 784 782 782 780 781 782 781 784 788 792
878 876 874 871 869 867 863 858 854 849 843 838 835 834 838 838 837 838 835 836 836 838 839 849 840 839 835 836 835 839 832 832 838 829 824 825 824 794 792 787 788 791 789 790 787 787 786 784 783 785 787 788 789 790
878 875 872 870 867 864 860 857 853 848 844 842 839 840 839 837 837 837 840 844 851 854 840 837 834 838 829 833 828 830 836 837 830 827 823 840 828 809 804 801 795 791 791 791 790 788 786 786 785 788 789 790 792 793
875 872 870 867 864 862 859 856 853 850 848 846 845 841 839 841 844 846 863 857 852 843 838 836 832 831 827 823 824 828 829 835 830 829 831 836 813 814 806 799 794 792 790 791 790 790 790 791 792 793 794 795 796 797
871 869 866 864 861 859 856 854 852 850 847 842 842 844 849 857 858 858 852 853 851 835 830 830 827 824 819 820 817 824 816 823 825 815 819 825 825 815 808 804 798 796 794 795 796 796 796 795 795 795 796 797 797 799
867 864 862 859 857 856 854 853 850 847 845 849 852 856 858 866 862 848 839 835 825 825 827 826 823 819 812 814 815 810 808 814 809 815 823 837 828 822 817 811 806 805 803 801 801 800 799 799 799 799 800 800 801 801
863 860 858 855 853 853 852 849 847 845 845 849 856 856 856 844 847 840 837 832 824 821 820 816 812 808 807 806 806 800 807 800 804 821 831 830 828 825 821 816 814 812 810 808 806 805 803 802 802 802 803 803 802 801
859 856 854 852 850 849 847 845 843 842 841 844 843 844 844 842 835 828 825 824 818 817 816 813 806 805 816 805 798 802 796 811 826 827 831 832 830 828 825 821 819 817 815 813 812 810 808 806 805 804 804 803 802 801
856 854 851 848 845 844 843 841 839 836 832 836 837 836 834 834 829 825 824 820 818 815 811 808 802 800 797 790 798 823 827 831 832 831 833 835 834 832 829 825 823 821 819 816 815 813 811 809 807 806 805 804 802 801
852 850 847 845 843 839 836 835 833 830 827 833 831 833 828 825 825 824 824 823 821 814 807 802 806 805 825 825 830 838 837 839 836 836 836 837 836 834 832 829 827 825 822 820 817 814 811 810 808 807 806 804 802 801
847 845 842 840 840 839 836 832 829 827 826 830 828 827 827 823 821 825 826 824 823 822 822 828 827 835 834 839 840 840 841 841 842 840 838 838 837 835 833 831 828 825 822 820 817 815 812 810 809 807 806 803 801 800
842 840 836 835 836 837 834 831 828 825 823 828 827 826 826 825 824 829 828 828 828 835 837 841 843 842 842 842 843 842 842 843 842 840 838 838 837 835 833 832 829 826 823 821 817 814 811 809 808 807 804 801 799 798
838 836 834 834 833 834 834 834 833 830 829 827 827 830 832 830 834 836 838 834 839 851 848 843 843 842 842 842 842 841 841 841 841 842 841 838 835 834 832 829 827 824 822 820 817 813 811 809 807 804 802 800 798 796
836 835 834 832 832 832 833 836 837 834 834 834 835 841 845 844 846 845 841 846 852 845 843 843 841 839 840 840 839 839 839 839 839 838 837 836 834 832 830 828 825 822 820 817 814 812 810 807 804 801 800 798 796 793
835 834 834 834 836 838 840 837 841 845 844 846 848 849 853 853 849 844 856 854 845 838 837 837 837 837 837 836 836 836 836 836 836 835 834 833 832 830 828 825 822 819 815 812 811 809 807 805 803 800 798 795 792 789
834 836 843 847 854 850 851 856 856 858 859 864 871 854 857 860 854 859 857 854 839 835 835 834 835 835 835 835 834 832 832 833 833 832 831 829 828 825 824 821 817 814 812 809 807 805 803 801 799 796 793 790 787 784
839 850 854 859 865 860 870 866 870 863 872 882 870 866 863 868 867 872 856 844 839 835 832 832 832 831 832 830 828 827 828 828 828 827 825 824 822 820 818 816 812 809 807 805 803 801 799 796 794 791 788 785 782 777
849 863 856 870 871 861 873 863 874 872 878 876 873 872 875 875 867 855 843 835 832 828 827 827 827 827 825 823 822 821 820 822 823 822 819 819 818 816 813 812 808 803 802 801 799 797 794 791 788 785 781 777 775 772
855 862 865 862 864 867 866 869 868 869 870 868 868 871 875 865 865 835 825 820 820 817 818 820 820 819 817 815 815 815 816 817 816 815 814 813 812 810 808 805 801 798 797 795 794 792 789 785 782 779 775 772 769 766
859 862 859 866 866 868 865 872 872 858 856 857 861 858 858 843 825 816 813 811 812 813 813 814 814 813 812 810 810 811 810 811 810 809 807 805 803 801 798 796 793 792 791 789 788 786 784 781 777 772 769 766 764 762
863 862 862 863 869 869 860 851 848 843 843 846 845 838 832 821 812 809 808 808 809 809 808 807 805 806 805 805 804 803 803 803 804 804 801 797 793 790 789 788 786 785 783 781 780 779 777 774 770 767 765 762 759 756
864 865 867 873 863 846 842 845 845 845 844 843 841 833 824 812 805 804 802 801 801 800 798 799 799 799 797 798 796 795 794 794 793 793 791 787 783 781 780 780 778 777 775 773 771 770 768 766 764 762 760 757 754 751
862 864 864 864 854 843 845 846 845 845 844 841 839 838 828 821 802 791 789 789 791 792 793 793 792 792 792 791 790 788 786 784 783 782 780 777 775 772 771 770 769 768 767 765 764 762 761 759 758 756 753 750 748 746
861 861 860 859 847 847 847 848 849 849 845 844 839 839 835 829 818 794 788 787 787 787 787 789 789 786 786 785 784 782 780 778 776 774 772 770 767 764 762 760 758 757 757 755 754 753 753 752 751 750 747 744 742 740
865 865 862 859 853 848 849 848 848 849 849 848 842 838 835 828 816 798 791 789 789 790 791 791 788 784 783 781 779 776 774 771 769 766 764 762 759 755 751 748 747 747 746 745 744 745 745 745 744 743 741 738 736 734
Wind_Speed
18 18 17 17 18 19 19 19 20 21 22 23 24 26 25 24 22 14 10 15 5 3 2 4 4 4 2 2 3 3 3 3 3 3 2 1 2 3 2 4 4 4 3 3 1 1 7 3 2 3 4 2 4 3
17 16 17 17 17 17 18 19 20 21 22 23 23 23 23 21 18 14 5 12 7 3 2 4 5 5 3 5 4 2 3 2 3 3 2 1 3 1 2 3 2 3 6 3 7 6 4 4 6 3 7 6 5 5
16 16 16 16 16 17 18 19 20 20 21 22 22 21 20 19 16 13 7 13 3 3 3 1 4 9 7 6 6 3 2 4 2 1 2 1 5 3 3 6 2 4 4 3 2 2 5 3 3 4 5 5 3 1
15 15 15 16 16 17 17 18 19 21 21 21 21 21 19 16 11 10 6 11 4 4 2 4 1 3 6 9 7 5 6 6 4 1 3 2 3 3 3 4 4 4 3 4 6 6 5 8 9 8 6 4 5 5
14 14 15 15 16 17 18 18 19 19 20 21 21 21 18 12 9 6 6 10 10 2 2 3 5 3 4 7 7 7 9 3 2 1 2 3 2 2 2 1 5 5 6 4 5 6 5 6 9 8 8 8 7 6
14 14 15 16 17 16 17 19 19 20 21 22 22 22 17 9 5 3 2 5 11 7 2 3 2 2 4 6 9 6 4 2 2 3 3 3 3 2 3 4 7 5 3 3 4 2 5 7 9 9 7 5 3 4
15 15 15 16 17 18 19 20 20 21 22 24 22 21 12 8 3 2 2 4 11 8 2 4 4 3 1 3 2 1 2 1 2 1 2 2 2 4 2 4 5 5 5 5 5 3 4 3 6 6 6 9 7 4
15 16 17 16 17 18 19 20 20 21 24 25 23 16 5 2 2 1 3 6 10 2 3 2 4 4 4 0 1 1 2 1 2 2 1 2 1 1 4 10 6 5 7 6 6 5 4 0 4 5 6 8 5 4
15 17 18 19 18 18 18 20 22 24 26 27 20 7 2 2 3 3 16 9 4 1 2 1 2 4 2 0 2 1 2 3 1 2 2 3 1 6 9 6 8 6 5 4 2 0 1 4 6 4 5 5 4 3
15 16 17 18 18 17 19 20 23 25 26 18 7 2 3 1 11 8 2 2 2 3 2 2 1 3 2 1 1 2 2 2 2 4 1 2 4 10 9 12 6 4 3 1 2 3 3 3 1 1 1 2 1 0
16 17 17 18 19 19 21 22 21 23 11 9 8 1 6 7 2 3 1 2 3 3 2 3 3 3 2 1 3 2 2 1 1 4 3 2 4 4 11 8 5 5 4 6 5 3 5 6 3 2 3 4 4 4
18 18 18 21 20 20 20 19 19 17 12 9 12 11 5 5 3 1 2 3 2 4 2 3 4 4 3 2 1 1 2 2 6 1 2 3 2 10 13 12 6 6 4 5 9 8 12 12 12 10 9 9 9 7
21 20 19 23 20 19 15 17 15 16 17 5 2 2 3 3 4 3 2 4 2 3 3 3 4 3 3 3 2 2 4 5 2 2 4 3 8 11 14 9 5 8 9 11 12 13 14 13 12 10 7 5 4 4
21 21 20 24 22 15 10 19 15 13 3 3 4 5 3 4 4 4 4 4 4 2 1 2 2 4 3 3 3 4 4 3 3 3 5 3 7 9 11 11 9 9 10 9 8 8 7 6 6 6 7 6 5 6
20 21 22 19 12 9 16 19 16 12 4 2 3 4 5 4 3 3 4 3 2 2 2 2 3 3 3 3 3 1 1 4 2 1 2 4 7 9 10 10 10 10 11 11 13 11 10 9 8 6 7 8 8 8
20 19 9 13 10 19 17 21 14 5 4 2 3 2 2 1 4 2 1 3 1 2 2 2 3 2 4 3 3 5 2 1 2 1 3 4 8 9 10 11 11 13 13 11 12 13 11 9 8 6 6 9 9 8
16 5 16 17 17 19 21 11 4 4 4 4 4 0 2 1 3 3 2 2 3 2 2 3 4 7 3 3 3 3 2 2 4 3 3 6 8 9 12 14 13 15 14 11 13 15 14 8 8 6 7 9 10 6
11 17 20 21 21 18 8 6 4 3 5 3 1 2 2 2 2 3 2 6 4 2 2 2 4 3 2 2 1 2 2 3 3 5 3 6 10 11 12 12 12 14 13 14 15 15 14 8 7 7 8 9 8 7
22 22 21 18 13 6 3 3 3 3 3 1 2 1 2 2 1 8 3 8 3 3 3 4 4 2 2 2 1 1 2 2 3 4 2 7 11 12 12 13 12 15 16 17 18 15 12 5 6 8 10 11 6 9
17 14 11 7 4 3 3 2 4 2 2 2 0 2 2 1 2 2 2 4 2 2 4 3 1 1 1 1 0 1 1 2 2 2 2 4 10 12 11 11 12 15 13 16 17 16 16 7 9 12 14 15 8 14
8 2 9 4 3 8 0 2 3 1 2 1 1 2 3 3 3 3 3 4 3 2 1 1 1 1 2 3 2 2 2 0 2 3 2 2 11 12 13 14 16 14 12 15 12 15 14 12 14 19 16 12 12 12
3 7 3 2 1 4 2 5 2 3 1 2 3 2 2 2 2 2 2 4 1 3 3 2 2 2 4 4 6 4 3 3 3 3 4 7 5 7 9 12 13 13 14 14 13 13 13 16 16 15 10 13 14 21
3 1 2 5 4 3 3 10 3 5 2 4 3 4 3 3 2 5 2 2 3 5 5 4 4 4 6 6 7 7 7 6 4 5 6 7 9 13 14 15 15 16 14 14 12 14 15 14 15 15 14 19 20 21
2 4 4 3 3 3 3 5 2 4 4 4 4 5 4 3 4 3 2 2 3 2 4 7 7 2 3 5 7 13 14 11 10 10 8 8 10 16 17 20 20 18 16 16 16 15 15 18 16 19 21 22 23 23
4 5 4 4 3 4 5 6 6 5 2 2 3 4 3 3 3 2 2 3 2 2 3 7 9 10 3 3 9 15 14 15 15 13 13 11 14 17 18 19 22 20 11 9 11 14 17 20 23 24 24 23 22 24
2 3 1 3 3 2 3 2 1 2 1 3 4 3 3 3 2 5 3 3 3 3 6 6 5 2 4 15 9 13 19 18 17 16 20 16 15 16 16 12 12 20 13 10 15 19 23 25 25 26 27 28 25 24
1 3 2 1 2 3 2 2 1 1 2 4 3 2 3 1 5 4 2 6 4 11 12 10 13 15 15 18 16 16 18 17 19 19 18 21 24 25 25 22 18 20 18 20 20 21 23 26 28 29 29 30 28 26
2 2 4 2 1 0 3 1 3 5 3 2 3 2 5 6 5 3 4 6 12 11 12 13 17 17 19 20 18 17 18 20 22 25 28 30 31 27 26 25 23 20 18 19 20 21 22 23 24 27 27 24 20 16
1 1 2 1 1 2 4 5 4 3 2 3 4 4 5 4 4 5 6 8 9 14 19 23 20 14 15 17 19 20 21 23 19 8 13 10 14 21 21 16 19 20 21 21 20 18 20 23 25 18 19 22 26 23
2 0 2 1 2 4 3 3 2 1 3 3 3 4 3 5 17 23 25 23 22 25 25 20 17 16 18 16 20 21 20 20 21 22 9 9 19 26 22 21 22 23 25 24 23 23 24 21 19 22 26 26 25 23
1 1 0 2 4 2 1 3 5 3 3 2 1 3 5 5 13 15 14 19 24 24 22 22 23 22 22 22 21 19 19 22 21 21 24 28 30 31 30 29 29 27 26 27 26 26 25 21 20 23 25 25 23 20
1 3 2 3 4 1 2 3 2 2 2 2 2 1 3 2 4 5 5 7 12 16 20 19 21 25 19 19 19 21 21 22 24 25 25 28 30 30 30 29 30 30 30 23 25 22 21 19 21 23 24 24 22 22
1 0 1 3 3 4 3 4 2 4 2 2 3 2 2 2 5 5 7 8 10 14 17 20 25 28 28 28 28 30 28 29 32 30 27 26 26 28 30 27 24 23 22 23 22 22 19 20 22 22 22 21 21 21
Wind_Direction
81 74 69 63 56 51 44 39 38 36 32 28 22 19 19 20 19 24 35 24 31 121 258 201 188 150 109 118 151 255 36 337 38 84 170 203 225 258 289 258 213 175 178 228 116 305 283 192 276 173 206 80 149 142
78 71 64 58 52 46 41 35 33 30 26 24 19 14 12 12 14 17 27 6 10 101 215 219 227 227 201 184 139 15 192 172 194 109 176 146 225 14 161 266 10 301 189 201 183 223 211 195 206 213 183 164 185 151
71 63 58 54 48 40 35 29 26 21 18 16 12 8 5 3 7 15 5 4 5 51 320 10 231 210 210 206 206 131 262 223 158 141 150 185 248 156 219 237 242 270 173 228 32 283 250 227 258 206 191 152 157 141
66 58 51 47 41 35 29 23 20 15 11 7 2 360 0 358 359 5 23 16 40 84 110 280 190 222 222 209 203 191 139 95 98 59 204 207 230 169 238 251 211 193 145 222 257 280 299 246 219 193 201 162 159 180
56 48 42 36 32 26 20 16 13 7 3 359 355 352 354 352 347 6 54 46 35 62 242 276 303 254 219 201 161 138 138 133 172 169 189 222 246 103 254 283 257 195 205 172 238 230 200 239 206 178 180 188 187 166
45 38 31 25 19 14 10 8 4 360 356 351 347 345 347 343 323 341 26 35 15 5 66 329 357 40 79 132 123 127 178 197 156 187 217 272 267 186 269 261 246 234 268 212 256 307 229 269 196 177 195 179 177 169
33 27 20 13 7 5 3 359 355 350 348 345 337 335 336 333 329 27 133 29 356 345 63 320 340 352 58 114 108 105 175 198 163 183 228 191 256 209 242 233 261 244 255 280 267 270 268 218 198 189 165 137 177 153
21 17 14 7 2 359 356 351 347 344 342 339 330 326 309 353 90 58 8 333 344 7 68 23 281 349 6 117 202 151 185 183 199 213 197 184 300 208 259 247 274 267 287 285 276 242 236 66 117 132 131 142 152 164
15 12 11 8 1 354 348 344 343 341 338 335 329 319 28 53 45 338 320 309 261 186 139 99 306 277 348 81 223 223 234 245 286 210 236 142 230 229 235 249 255 243 217 243 285 334 222 175 184 169 149 157 157 141
2 358 357 356 352 352 351 348 346 339 340 336 336 347 9 45 330 322 32 31 39 7 44 191 155 264 103 355 275 88 315 227 247 244 141 204 252 265 259 251 259 275 247 170 80 318 317 301 221 53 340 28 33 355
343 341 341 342 338 340 345 344 343 345 349 353 358 310 331 340 50 35 5 62 328 357 220 242 190 239 230 175 230 189 191 202 209 257 163 287 274 296 341 321 306 316 307 286 294 325 37 40 22 42 40 47 58 72
329 332 333 337 334 330 336 342 343 344 334 301 285 299 329 26 24 24 297 304 157 223 248 189 230 206 264 192 164 238 185 80 240 163 101 264 266 336 333 325 333 6 37 47 47 60 59 53 45 53 50 55 56 61
325 325 323 331 330 330 331 341 330 323 325 310 61 37 42 318 24 132 265 303 281 199 218 212 249 223 202 215 223 159 210 226 76 191 226 220 339 348 352 339 355 18 49 54 51 57 63 68 64 69 74 72 112 116
320 319 318 323 321 318 322 336 330 300 316 66 34 315 140 295 250 197 196 201 251 142 127 182 253 221 203 201 195 220 221 131 215 226 233 342 341 346 1 16 34 35 45 53 51 42 38 40 50 50 65 53 25 7
316 317 316 318 328 305 313 326 328 300 226 172 99 247 226 248 250 243 251 328 268 219 205 262 240 218 209 250 203 231 226 243 221 276 40 352 359 2 2 7 16 16 17 21 21 18 15 23 34 63 45 25 11 358
319 319 319 321 295 325 324 327 312 268 200 152 232 270 224 1 280 246 144 265 269 243 257 231 266 251 254 212 201 228 239 101 28 50 32 3 6 5 358 0 21 12 7 11 14 8 3 19 23 25 15 11 4 356
316 282 304 318 325 326 323 316 257 231 208 193 253 341 134 235 265 299 303 269 246 253 241 250 237 229 306 238 131 26 60 30 343 38 53 26 7 358 355 358 21 6 357 21 9 359 348 354 355 359 0 352 351 357
304 312 316 318 319 324 299 218 230 212 235 244 230 231 214 217 249 267 320 3 320 263 241 233 342 358 32 27 65 18 11 345 360 356 53 31 10 1 2 357 6 1 0 360 349 342 342 339 355 349 340 333 336 347
303 305 311 309 307 292 282 273 238 268 236 203 259 249 217 247 129 80 20 344 301 40 8 12 56 59 71 55 32 348 351 360 324 321 33 34 14 4 358 359 357 353 349 349 342 326 334 323 339 333 324 318 307 340
305 307 322 307 279 190 267 256 309 273 309 238 244 296 260 240 64 70 20 7 32 54 47 51 132 193 197 199 172 288 310 328 307 315 316 9 2 359 354 348 337 330 325 335 334 334 329 322 325 330 325 305 316 336
318 294 330 6 205 218 327 356 316 312 296 272 288 53 285 9 38 25 354 340 58 83 112 203 198 229 170 166 196 222 197 2 188 184 246 295 342 346 338 336 333 329 325 325 317 319 326 320 320 317 314 306 305 296
267 314 301 273 80 337 91 36 253 301 347 275 16 40 28 12 344 330 294 51 147 223 189 184 219 206 198 210 217 226 234 233 234 273 307 317 328 325 318 314 315 306 308 303 304 302 308 313 318 317 330 319 315 316
316 9 48 18 57 36 255 358 53 1 36 296 4 19 343 342 270 327 45 223 248 233 214 226 237 254 258 222 211 220 221 229 249 277 295 299 305 314 313 306 309 301 298 302 306 306 308 318 315 312 314 316 316 315
24 51 54 54 61 265 353 8 18 17 26 23 21 320 336 298 336 41 243 260 252 245 214 230 228 251 247 237 229 235 234 230 248 268 277 277 295 315 320 316 318 315 305 299 301 302 303 310 312 309 314 315 315 312
80 328 69 334 335 35 22 357 348 32 334 321 8 316 312 356 10 330 246 266 256 239 238 247 237 232 220 247 259 248 233 231 236 249 280 288 301 306 312 320 321 320 324 294 300 308 310 315 316 316 315 308 304 302
81 313 89 190 282 96 197 345 295 231 187 322 242 274 15 67 15 254 235 218 220 209 216 219 234 237 244 238 240 248 243 234 238 239 268 287 293 295 291 294 304 311 320 289 312 311 310 312 310 311 309 311 311 314
129 255 283 268 129 110 42 31 35 148 219 215 246 1 51 314 251 251 259 220 203 220 224 252 278 254 251 270 271 269 257 246 238 253 272 282 286 291 290 275 271 298 304 294 298 299 301 305 304 303 298 301 302 306
164 181 171 234 77 182 178 188 191 217 227 185 116 229 200 210 242 227 206 199 223 232 234 276 287 276 271 273 278 277 268 263 265 271 277 281 285 288 290 293 290 296 290 289 293 292 288 290 288 287 286 289 294 304
73 10 95 352 315 226 222 208 226 216 174 172 196 225 237 226 242 229 229 226 256 271 270 284 290 278 271 270 270 270 270 268 264 267 274 281 292 289 308 298 298 303 303 300 297 290 294 298 293 297 323 317 314 313
277 226 103 113 199 241 229 180 247 277 241 260 289 296 269 257 279 281 267 262 263 262 268 274 270 259 260 267 278 284 278 273 261 242 242 254 264 293 292 290 295 297 300 301 300 301 306 305 297 302 310 313 316 318
128 110 41 215 250 256 12 311 284 264 261 263 254 263 290 313 304 291 276 259 252 255 260 263 261 258 258 261 258 262 278 299 299 291 283 280 283 285 284 287 290 289 290 294 293 293 295 292 288 298 304 306 309 309
195 212 182 270 276 335 17 16 318 308 318 329 279 310 306 292 272 284 304 297 237 235 241 250 260 266 279 283 287 289 286 289 294 296 293 291 291 293 293 290 285 284 288 281 282 279 283 275 282 291 296 300 303 307
37 340 304 294 307 320 341 342 341 314 321 298 272 223 242 265 266 293 310 319 279 278 286 295 290 286 288 291 294 297 300 302 304 298 286 280 287 301 300 291 288 275 260 273 271 276 266 267 274 282 291 295 299 304